Location: Arlington
(40.6323°N, 74.1651°W)
Time: 19:13:51
(UTC+00:00)

GPS 2-04 Rocket1 - Pass Details

Date: 22 November 2019
Orbit: 419 x 552 km, 35.6° (Epoch: 07 December)

Event Time Altitude Azimuth Distance (km) Brightness Sun altitude
Rises 22:58:51 0° 261° (W) 2,433 8.0 -16.0°
Reaches altitude 10° 23:01:10 10° 252° (WSW) 1,542 6.5 -16.4°
Maximum altitude 23:04:20 33° 187° (S) 740 3.6 -17.0°
Enters shadow 23:05:44 23° 142° (SE) 944 3.8 -17.2°
